Location: Iowa City
(41.6610°N, 91.5300°W)
Time: 05:22:43
(UTC-05:00)

ISS - Visible Passes

Search period start: 28 May 2017 00:00
Search period end: 07 June 2017 00:00
Orbit: 402 x 408 km, 51.6° (Epoch: 28 May)

Date Brightness Start Highest point End Pass type
(mag) Time Alt. Az. Time Alt. Az. Time Alt. Az.
28 May -0.9 00:53:41 10° NNW 00:56:00 18° NNE 00:57:37 13° NE visible
28 May -1.1 02:29:46 10° NW 02:30:10 13° NW 02:30:10 13° NW visible
28 May -0.8 22:23:53 10° WNW 22:26:15 18° NNW 22:28:36 10° NNE visible
29 May -0.7 00:01:38 10° NNW 00:03:41 15° N 00:05:44 10° NE visible
29 May -1.3 01:37:49 10° NW 01:39:02 19° NNW 01:39:02 19° NNW visible
29 May -1.2 21:31:16 10° WNW 21:33:57 23° NNW 21:36:40 10° NE visible
29 May -0.7 23:09:25 10° NW 23:11:21 14° N 23:13:16 10° NE visible
30 May -1.4 00:45:55 10° NW 00:48:13 24° N 00:48:13 24° N visible
30 May -0.8 22:16:59 10° NW 22:18:58 15° N 22:20:59 10° NNE visible
30 May -1.2 23:53:57 10° NNW 23:56:25 19° NNE 23:57:35 16° NE visible
31 May -0.8 01:30:04 10° NW 01:30:13 11° NW 01:30:13 11° NW visible
31 May -0.9 21:24:22 10° NW 21:26:37 17° NNW 21:28:52 10° NNE visible
31 May -0.9 23:01:56 10° NNW 23:04:05 16° N 23:06:13 10° NE visible
01 Jun -1.5 00:38:03 10° NW 00:39:39 24° NNW 00:39:39 24° NNW visible
01 Jun -0.9 22:09:45 10° NNW 22:11:42 15° N 22:13:39 10° NE visible
01 Jun -2.0 23:46:05 10° NW 23:49:00 28° NNE 23:49:07 28° NNE visible
02 Jun -0.9 21:17:21 10° NW 21:19:18 15° N 21:21:15 10° NNE visible
02 Jun -1.4 22:54:07 10° NW 22:56:42 21° NNE 22:58:39 13° ENE visible
03 Jun -1.3 00:30:15 10° NW 00:31:17 19° NW 00:31:17 19° NW visible
03 Jun -1.1 22:02:05 10° NNW 22:04:21 17° NNE 22:06:35 10° NE visible
03 Jun -2.7 23:38:10 10° NW 23:40:50 44° N 23:40:50 44° N visible
04 Jun -1.0 21:09:56 10° NNW 21:11:56 15° N 21:13:56 10° NE visible
04 Jun -2.3 22:46:09 10° NW 22:49:11 32° NNE 22:50:24 24° ENE visible
05 Jun -1.0 00:22:38 10° WNW 00:23:03 13° WNW 00:23:03 13° WNW visible
05 Jun -1.7 21:54:10 10° NW 21:56:52 23° NNE 21:59:34 10° ENE visible
05 Jun -2.7 23:30:21 10° WNW 23:32:39 41° WNW 23:32:39 41° WNW visible
06 Jun -3.6 22:38:11 10° NW 22:41:29 63° NNE 22:42:16 44° E visible
